Location: Dodge City Community College Allied Health Building
(37.7772°N, 100.0364°W)
Time: 20:16:06
(UTC+00:00)

Meteor 2-15 Rocket - Pass Details

Date: 08 December 2021
Orbit: 939 x 956 km, 82.5° (Epoch: 17 January)

Event Time Altitude Azimuth Distance (km) Brightness Sun altitude
Rises 12:05:14 0° 353° (N) 3,610 7.3 -18.8°
Reaches altitude 10° 12:07:44 10° 354° (N) 2,661 6.6 -18.3°
Maximum altitude 12:13:49 85° 82° (E) 947 4.4 -17.2°
Drops below altitude 10° 12:19:53 10° 173° (S) 2,644 7.1 -16.0°
Sets 12:22:21 0° 173° (S) 3,585 7.8 -15.6°
